STARLINK-32455, 61632

Orbit data source: Space-Track

STARLINK-32455, 61632 is a payload satellite owned by SpaceX/Seattle (US) in LEO that was launched on Wed, 23 Oct 2024 UTC via an FALCON 9 launch vehicle from the Air Force Eastern Test Range (AFETR). Payload-class satellites include a variety of spacecraft equipped with specific instruments for various scientific and technological missions. These include communications satellites like Starlink; space stations such as the ISS; scientific satellites like the Hubble; Earth observation satellites from companies like Planet Labs, Umbra, and HawkEye 360; GPS; miniature CubeSats for education and research; and military/defense satellites.

Loading next visibility...
Identifier
61632, 2024-191M
Orbit
LEO
Country
Flag of USUS
Related business
Manufacturer
SpaceX/Seattle
Mission
Operational Commercial Communications
Bus & Motor
STARLINK V2M, Unknown motor
Mass
730 kg wet, ~700 kg dry
Launch date (UTC)
2024-10-23 (1 year ago)
Launch vehicle
FALCON 9
Launch site
Air Force Eastern Test Range (AFETR)
Object type
Payload
Rocket body
Debris
Shape & HBR
Box + 2 Pan, 17.7 m
Radar Cross Section
33.884 m², Large (>1 m²)

Expand to show TLE details & history
Last TLE update: 16 hours ago

TLE from 16 hours ago
0 STARLINK-32455
1 61632U 24191M   25302.98629701  .00000937  00000-0  43557-4 0  9996
2 61632  43.0010 176.4058 0001380 285.9069  74.1630 15.27581204 57503
Epoch: 2025-10-29T23:40Z
TLE epoch observation values (Epoch: 2025-10-29T23:40:16.061Z)
Latitude
-0.00006°
Longitude
142.78725°
Altitude
482.563 km
Speed
7.626 km/s
True Right ascension
11h 45m 37s
True Declination
0° 00' 00"
Sunlit
Object was in daylight at epoch
Visualization orbit readout
Latitude
Unknown
Longitude
Unknown
Altitude
Unknown
Speed
Unknown
Apparent Right ascension
Unknown
Apparent Declination
Unknown
Sunlit
N/A
Visualization observer readout
Local Sidereal Time
10:52:11
Azimuth
Unknown
Elevation
Unknown
Doppler factor
Unknown
Orbital elements
Apogee altitude
485.938 km
Perigee altitude
484.043 km
Semi-major axis
6,863.127 km
Eccentricity
0.00014
Inclination
43.001°
RAAN
176.4058°
Arg. of periapsis
285.9069°
True anomaly
74.17821°
Mean anomaly
74.163°
Eccentric anomaly
74.17061°
Mean motion
3.81733 °/min
Orbital period
94.31 mins
BSTAR
0.000043557
Loading maneuver chart data...
Computing Atmospheric mass density...
Loading historical data...
Loading historical data...
Loading historical data...
Loading historical data...
Loading historical data...
Loading historical data...
Loading historical data...

Documentation

Showing up to 5 results
|